Location: Bauen
(46.9356°N, 8.5784°E)
Time: 18:18:56
(UTC+00:00)

CZ-4C R/B - Pass Details

Date: 18 February 2020
Orbit: 641 x 1360 km, 63.4° (Epoch: 31 March)

Event Time Altitude Azimuth Distance (km) Brightness Sun altitude
Exits shadow 05:47:19 - 303° (WNW) 2,834 4.4 -7.3°
Reaches altitude 10° 05:48:30 10° 311° (NW) 2,560 4.2 -7.1°
Maximum altitude 05:52:39 19° 355° (N) 2,162 4.2 -6.4°
Drops below altitude 10° 05:57:18 10° 38° (NE) 2,920 5.4 -5.6°
Sets 06:01:10 0° 55° (NE) 4,023 6.4 -5.0°
